Location: Newark
(35.2672°N, 80.7344°W)
Time: 04:08:22
(UTC+00:00)

X-37B - Visible Passes

Search period start: 25 September 2020 00:00
Search period end: 05 October 2020 00:00
Orbit: 386 x 387 km, 45.0° (Epoch: 18 September)

Date Brightness Start Highest point End Pass type
(mag) Time Alt. Az. Time Alt. Az. Time Alt. Az.
25 Sep 2.7 09:13:47 26° E 09:13:47 26° E 09:15:23 10° ESE visible
25 Sep 2.4 10:46:30 10° W 10:48:38 17° SW 10:50:45 10° S visible
26 Sep 1.8 09:50:58 29° S 09:50:58 29° S 09:53:08 10° SSE visible
30 Sep 3.3 01:01:06 10° SW 01:01:41 14° SW 01:01:41 14° SW visible
01 Oct 1.8 00:03:04 10° SSW 00:05:43 24° SE 00:06:26 22° ESE visible
02 Oct 0.8 00:40:26 10° WSW 00:43:20 68° WNW 00:43:20 68° WNW visible
02 Oct 0.8 23:41:58 10° SW 23:45:03 52° SE 23:47:47 13° ENE visible
03 Oct 3.7 01:19:07 10° WNW 01:20:04 16° WNW 01:20:04 16° WNW visible
04 Oct 1.7 00:20:06 10° W 00:23:06 39° NNW 00:24:23 26° NNE visible
